Regional Weather Roundup
Issued by NWS Little Rock, AR

Home | Current Version | Previous Version | Text Only | Print | Product List | Glossary On
Versions: 1 2 3 4 5 6 7 8 9 10 11 12 13 14 15 16 17 18 19 20 21 22 23 24 25 26 27 28 29 30 31 32 33 34 35 36 37 38 39 40 41 42 43 44 45 46 47 48 49 50
000
ASUS44 KLZK 190805
RWRLZK

WEATHER ROUNDUP FOR ARKANSAS
NATIONAL WEATHER SERVICE LITTLE ROCK AR
300 AM CDT FRI SEP 19 2014

NOTE: "FAIR" INDICATES FEW OR NO CLOUDS BELOW 12,000 FEET WITH NO
SIGNIFICANT WEATHER AND/OR OBSTRUCTIONS TO VISIBILITY.

ARZ001-003-010-029-190900-
NORTHWEST ARKANSAS

CITY           SKY/WX    TMP DP  RH WIND       PRES   REMARKS
FAYETTEVILLE   CLOUDY    65  64  97 E5        30.02S
FORT SMITH     CLOUDY    69  65  86 E7        29.98F
HARRISON       CLOUDY    64  63  96 SE5       30.05S FOG
BENTONVILLE    CLOUDY    66  61  82 SE7       30.03F
ROGERS         CLOUDY    65  61  87 E10       30.04S
SILOAM SPGS    CLOUDY    64  59  82 E6        30.03R
HIGHFILL       CLOUDY    65  62  90 E7        30.02S
$$

ARZ004-005-016-190900-
NORTH CENTRAL ARKANSAS

CITY           SKY/WX    TMP DP  RH WIND       PRES   REMARKS
BATESVILLE     CLOUDY    64  63  94 CALM      30.02S
FLIPPIN        CLOUDY    64  59  82 CALM      30.04S VSB 1/2
MTN HOME       CLOUDY    61  61 100 CALM      30.03F FOG
$$

ARZ040-041-190900-
WEST CENTRAL ARKANSAS

CITY           SKY/WX    TMP DP  RH WIND       PRES   REMARKS
MENA           CLOUDY    72  70  94 CALM      30.00F
MOUNT IDA      CLOUDY    71  67  87 CALM      29.97F
$$

ARZ009-017-025-026-028-190900-
NORTHEAST ARKANSAS

CITY           SKY/WX    TMP DP  RH WIND       PRES   REMARKS
CORNING          N/A     63  63 100 N7        30.03F FOG
JONESBORO      CLOUDY    65  62  90 NE6       30.00F
NEWPORT        CLOUDY    66  64  93 N7        30.01F
WALNUT RIDGE   CLOUDY    63  59  88 N6        30.01F
BLYTHEVILLE    CLEAR     62  61  96 NE3       30.01F
$$

ARZ022-023-033-042-044-190900-
CENTRAL ARKANSAS

CITY           SKY/WX    TMP DP  RH WIND       PRES   REMARKS
LITTLE ROCK    PTCLDY    67  62  84 N3        29.99F
N LITTLE ROCK    N/A     65  64  97 NE6       29.99F
JACKSONVILLE   PTCLDY    64  62  92 N1        29.99F
SEARCY         CLOUDY    69  63  81 NE7       30.00F
HOT SPRINGS    CLOUDY    69  65  86 E6        29.99S
RUSSELLVILLE   CLOUDY    69  63  81 CALM      30.00F
CLINTON        CLOUDY    68  64  88 CALM      30.02F
$$

ARZ036-190900-
EAST ARKANSAS

CITY           SKY/WX    TMP DP  RH WIND       PRES   REMARKS
WEST MEMPHIS   CLEAR     65  65 100 NE5       29.98S
$$

ARZ050-053-066-070-073-190900-
SOUTHWEST ARKANSAS

CITY           SKY/WX    TMP DP  RH WIND       PRES   REMARKS
ARKADELPHIA    FAIR      69  68  97 VRB3      29.97F FOG
CAMDEN         CLEAR     68  64  88 NE3       29.95F
TEXARKANA      MOCLDY    71  71 100 NE5       29.94F FOG
EL DORADO      CLEAR     70  68  93 CALM      29.95F
DE QUEEN       CLOUDY    71  70  96 E5        29.94F FOG
$$

ARZ056-057-069-190900-
SOUTHEAST ARKANSAS

CITY           SKY/WX    TMP DP  RH WIND       PRES   REMARKS
PINE BLUFF     CLEAR     66  65  96 N5        29.97F
STUTTGART      CLEAR     64  63  94 N6        29.99S
MONTICELLO     CLOUDY    69  67  93 NE5       29.96F FOG

$$




USA.gov is the U.S. government's official web portal to all federal, state and local government web resources and services.